Location: Kershaw
(34.5481°N, 80.5823°W)
Time: 12:47:35
(UTC+00:00)

Vanguard 2 Rocket - All Passes

Search period start: 28 September 2022 00:00
Search period end: 08 October 2022 00:00
Orbit: 553 x 3323 km, 32.9° (Epoch: 26 September)

Date Brightness Start Highest point End Pass type
(mag) Time Alt. Az. Time Alt. Az. Time Alt. Az.
28 Sep - 02:13:10 10° S 02:23:32 20° SSE 02:31:12 10° ESE visible
28 Sep - 04:26:35 10° SW 04:38:57 44° SSE 04:46:10 10° E visible
28 Sep - 06:43:34 10° WSW 06:53:03 73° S 06:58:27 10° E night (unlit)
28 Sep - 09:00:07 10° W 09:06:10 65° SSW 09:10:18 10° ESE visible
28 Sep - 11:15:24 10° WSW 11:18:20 18° SSW 11:21:07 10° SSE daylight
29 Sep - 01:13:47 10° S 01:22:02 15° SSE 01:28:50 10° ESE visible
29 Sep - 03:24:37 10° SW 03:38:00 37° SSE 03:46:17 10° E visible
29 Sep - 05:41:16 10° WSW 05:52:45 66° SSE 05:59:06 10° E night (unlit)
29 Sep - 07:58:40 10° W 08:06:20 76° S 08:11:00 10° E visible
29 Sep - 10:14:27 10° W 10:18:49 31° SSW 10:22:22 10° SE visible
30 Sep - 02:23:03 10° SSW 02:36:45 31° SSE 02:45:56 10° E visible
30 Sep - 04:38:44 10° WSW 04:52:08 58° SSE 04:59:37 10° E visible
30 Sep - 06:56:40 10° W 07:06:16 79° S 07:11:43 10° E night (unlit)
30 Sep - 09:13:22 10° W 09:19:16 49° SSW 09:23:21 10° SE visible
01 Oct - 01:22:10 10° SSW 01:35:13 25° SSE 01:44:52 10° E visible
01 Oct - 03:36:15 10° SW 03:51:10 50° SSE 03:59:53 10° E visible
01 Oct - 05:54:10 10° WSW 06:05:56 76° S 06:12:23 10° E night (unlit)
01 Oct - 08:11:51 10° W 08:19:31 67° SSW 08:24:12 10° ESE visible
01 Oct - 10:28:13 10° WSW 10:31:40 19° SSW 10:34:36 10° SSE visible
02 Oct - 00:22:27 10° S 00:33:28 18° SE 00:42:33 10° ESE visible
02 Oct - 02:34:02 10° SW 02:49:52 43° SSE 02:59:51 10° E visible
02 Oct - 04:51:21 10° WSW 05:05:18 71° SSE 05:12:55 10° E visible
02 Oct - 07:09:49 10° W 07:19:29 78° S 07:24:58 10° E night (unlit)
02 Oct - 09:26:43 10° W 09:32:13 34° SSW 09:36:08 10° SE visible
02 Oct - 23:25:25 10° SSE 23:31:37 12° SE 23:37:19 10° ESE visible
03 Oct - 01:32:21 10° SSW 01:48:16 35° SSE 01:59:17 10° E visible
03 Oct - 03:48:27 10° WSW 04:04:17 63° SSE 04:13:17 10° E visible
03 Oct - 06:07:14 10° W 06:19:09 81° S 06:25:38 10° E night (unlit)
03 Oct - 08:25:04 10° W 08:32:35 53° SSW 08:37:15 10° SE visible
03 Oct - 10:43:58 10° SW 10:44:21 10° SW 10:44:43 10° SW visible
04 Oct - 00:31:28 10° SSW 00:46:27 28° SE 00:58:00 10° E visible
04 Oct - 02:45:45 10° SW 03:02:55 55° SSE 03:13:21 10° E visible
04 Oct - 05:04:14 10° WSW 05:18:28 79° S 05:26:10 10° E visible
04 Oct - 07:22:59 10° W 07:32:39 70° SSW 07:38:08 10° ESE visible
04 Oct - 09:40:25 10° W 09:44:57 21° SW 09:48:24 10° SSE visible
04 Oct - 23:31:45 10° S 23:44:32 21° SE 23:55:29 10° E visible
05 Oct - 01:43:30 10° SW 02:01:14 47° SSE 02:13:04 10° E visible
05 Oct - 04:01:04 10° WSW 04:17:25 74° SSE 04:26:33 10° E visible
05 Oct - 06:20:23 10° W 06:32:21 79° S 06:38:52 10° E night (unlit)
05 Oct - 08:38:22 10° W 08:45:28 37° SSW 08:50:01 10° SE visible
05 Oct - 22:34:20 10° SSE 22:42:38 14° SE 22:50:26 10° ESE daylight
06 Oct - 00:41:54 10° SSW 00:59:18 39° SSE 01:12:13 10° E visible
06 Oct - 02:58:00 10° WSW 03:15:58 67° SSE 03:26:41 10° E visible
06 Oct - 05:17:18 10° W 05:31:40 83° S 05:39:25 10° E visible
06 Oct - 07:36:09 10° W 07:45:40 56° SSW 07:51:10 10° SE visible
06 Oct - 09:55:08 10° WSW 09:57:28 12° SW 09:59:30 10° SSW visible
06 Oct - 23:41:12 10° SSW 23:57:17 31° SE 00:10:36 10° E visible
07 Oct - 01:55:17 10° SW 02:14:11 59° SSE 02:26:30 10° E visible
07 Oct - 04:13:58 10° WSW 04:30:34 81° S 04:39:47 10° E visible
07 Oct - 06:33:31 10° W 06:45:29 72° SSW 06:52:01 10° ESE night (unlit)
07 Oct - 08:51:57 10° W 08:58:06 25° SW 09:02:20 10° SSE visible
07 Oct - 22:41:41 10° S 22:55:17 23° SE 23:07:43 10° E daylight
